Simultaneous Nadir Overpasses (SNOs) Predictions

Prediction of SNOs between METOP-A and TERRA Satellite Orbit:

Table of predicted SNOs for the next 14.0 days since TLE Epoch: 2/1/2014
Index Date (METOP-A) Time (METOP-A) Lat,Lon (METOP-A) SZA (METOP-A ) Date (TERRA) Time (TERRA) Lat,Lon (TERRA) SZA (TERRA ) Distance(km) Time Diff (sec)
1 02/01/2014 06:09:29 -81.33, -44.86 79.24 02/01/2014 06:09:38 -81.33, -44.97 79.25 1.94 9
2 02/01/2014 07:00:09 81.34, 122.95 100.81 02/01/2014 06:59:04 81.33, 122.81 100.77 2.38 65
3 02/04/2014 00:53:09 81.33,-145.94 99.94 02/04/2014 00:54:00 81.34,-145.81 99.98 2.34 51
4 02/04/2014 01:43:48 -81.34, 21.94 80.02 02/04/2014 01:43:26 -81.34, 21.89 80.03 1.08 22
5 02/06/2014 19:36:46 -81.34, 113.43 80.88 02/06/2014 19:37:36 -81.34, 113.27 80.87 2.83 50
6 02/06/2014 20:27:27 81.34, -79.22 99.11 02/06/2014 20:27:01 81.34, -79.07 99.12 2.62 26
7 02/09/2014 14:20:25 81.34, 12.57 98.25 02/09/2014 14:20:26 81.34, 12.52 98.25 0.89 1
8 02/09/2014 15:11:05 -81.34,-179.87 81.74 02/09/2014 15:09:51 -81.34,-179.76 81.76 1.91 74
9 02/12/2014 07:22:43 -81.33, -63.35 82.68 02/12/2014 07:23:42 -81.33, -63.45 82.66 1.71 59
10 02/12/2014 08:13:23 81.34, 104.31 97.36 02/12/2014 08:13:05 81.34, 104.48 97.37 2.95 18
11 02/15/2014 00:25:01 81.33,-139.26 96.38 02/15/2014 00:26:12 81.33,-139.09 96.43 2.76 71




NCC Satellite Simultaneous Nadir Overpasses (SNOs) Prediction Service
